OpenBCM V2.0.3 (Linux)

Packet Radio Mailbox

IZ3LSV

[San Dona' di P. JN]

 Login: GUEST





  
I0OJJ  > AMSAT    24.06.26 07:11l 333 Lines 15661 Bytes #999 (0) @ WW
BID : 2A7_IR0EQ
Read: GUEST
Subj: 2Line Orbital Elements
Path: IZ3LSV<IW8PGT<LU4ECL<VK2RZ<IR0AAB<I0OJJ<IR0EQ
Sent: 260614/0218z @:IR0EQ.ITA.EU [Rome] $:2A7_IR0EQ

>From i0ojj%ir0eq.ita.eu@i0ojj.ampr.org Sun Jun 14 04:23:11 2026
Received: from i0ojj.ampr.org by i0ojj.ampr.org (JNOS2.0q.1) with SMTP
	id AA17062577 ; Sun, 14 Jun 2026 04:23:11 +0200
Message-Id: <2A7_IR0EQ@i0ojj.bbs>
>From: i0ojj@ir0eq.ita.eu
X-JNOS-User-Port: Telnet   (i0ojj @ 44.27.18.9)  ->   Sending message

>From i0ojj@rgate.ampr.org Sun Jun 14 04:18:59 2026
Received: from rgate.ampr.org by rgate.ampr.org (JNOS2.0q.1) with SMTP
	id AA2959 ; Sun, 14 Jun 2026 04:18:59 +0200
Received: by rgate.ampr.org with SMTP
	id AA2956 ; Sun, 14 Jun 2026 02:25:30 +0200
Message-Id: <2957@rgate.ampr.org>
>From: i0ojj@rgate.ampr.org

SB KEPS @ AMSAT  $ORB26165.1
2Line Orbital Elements 26165.AMSAT

QST de W1STR

AMSAT Orbital Elements for Amateur Satellites in TLE Format
>From Orbital Analysis Office
New England Sci-Tech STEM Education Center
Natick MA June 14, 2026
To all radio amateurs


These element sets describe the orbits of various satellites 
in use by the amateur radio community. For details see:
www.amsat.org/keplerian-elements-formats/

A daily update of element sets is available at:
www.amsat.org/tle/daily-bulletin.txt
or without bulletin text:
www.amsat.org/tle/dailytle.txt


AO-07
1 07530U 74089B   26164.64372594 -.00000027  00000-0  12416-3 0  9999
2 07530 101.9901 177.8534 0012533 136.6950 338.1967 12.53698063360073
UO-11
1 14781U 84021B   26164.86535553  .00001244  00000-0  13219-3 0  9995
2 14781  97.8057 130.4772 0007318 183.8219 176.2945 14.90776132256630
LO-19
1 20442U 90005G   26164.62375740  .00000112  00000-0  56807-4 0  9993
2 20442  98.8851 186.3311 0010925 212.0527 147.9994 14.34122217901888
AO-27
1 22825U 93061C   26164.78337664  .00000093  00000-0  52439-4 0  9990
2 22825  98.6880 232.1981 0009503 108.4861 251.7356 14.30941424706511
FO-29
1 24278U 96046B   26164.83618926  .00000019  00000-0  52289-4 0  9990
2 24278  98.5242  14.1674 0350863 105.1048 258.9185 13.53274110472718
GO-32
1 25397U 98043D   26164.83321139  .00000056  00000-0  44485-4 0  9999
2 25397  99.0066 157.5072 0000881 170.2303 189.8892 14.24427851450853
ISS
1 25544U 98067A   26164.83523427  .00008738  00000-0  16534-3 0  9991
2 25544  51.6333 316.6832 0004955 182.4672 177.6293 15.49214103571238
NO-44
1 26931U 01043C   26164.59719895  .00000106  00000-0  70446-4 0  9993
2 26931  67.0507 253.5571 0006091 264.5230  95.5177 14.31954950289930
SO-50
1 27607U 02058C   26164.64880848  .00000986  00000-0  13345-3 0  9994
2 27607  64.5509 139.9331 0075334 263.1310  96.1222 14.83040079263931
CO-55
1 27844U 03031E   26164.80576488  .00000273  00000-0  13706-3 0  9999
2 27844  98.6736 173.4071 0009303 187.8424 172.2611 14.24333852191194
RS-22
1 27939U 03042A   26164.89312646  .00001186  00000-0  19096-3 0  9991
2 27939  98.3466 349.1595 0009972 281.6577 184.5687 14.73462775215066
CO-65
1 32785U 08021C   26164.86792194  .00004966  00000-0  31435-3 0  9995
2 32785  97.8270 146.2174 0010188  49.5442 310.6673 15.09425459984697
CO-66
1 32791U 08021J   26164.54482073  .00018790  00000-0  59804-3 0  9999
2 32791  97.7510 162.2685 0001606  15.7842 344.3449 15.32635476986739
RS-30
1 32953U 08025A   26164.87934095 -.00000015  00000-0 -17509-3 0  9994
2 32953  82.5045 357.4989 0018987 321.3501  38.6219 12.43179026819283
SRMSAT
1 37841U 11058D   26164.49266569  .00000360  00000-0  51406-4 0  9993
2 37841  19.9718  81.8294 0011872 162.9750 353.0513 14.11574841757297
ZACUBE-1
1 39417U 13066B   26164.87453134  .00003512  00000-0  27422-3 0  9995
2 39417  97.8083 127.1936 0040448 259.2680 100.3989 15.01171464680231
Delfi-N3xt
1 39428U 13066N   26164.83149657  .00005026  00000-0  44050-3 0  9993
2 39428  97.8343  85.1465 0073453 217.0735 142.5399 14.95050817674121
GOMX-1
1 39430U 13066Q   26164.84937855  .00002128  00000-0  32291-3 0  9996
2 39430  97.6488   5.5238 0130214  88.1590 273.4525 14.69449306669429
LO-74
1 39440U 13066AA  26164.84782955  .00004574  00000-0  42317-3 0  9993
2 39440  97.8902 113.8118 0058639  39.7873 320.7624 14.93736485676494
AO-73
1 39444U 13066AE  26164.87461990  .00007372  00000-0  45803-3 0  9995
2 39444  97.8267 136.2511 0035377 212.6416 147.2626 15.09452478679163
DTUSAT-2
1 40030U 14033W   26164.73736469  .00007626  00000-0  41236-3 0  9992
2 40030  98.0858 162.2453 0006408 239.3722 120.6877 15.14977827652168
LILACSAT-2
1 40908U 15049K   26164.85374697  .00018402  00000-0  31435-3 0  9992
2 40908  97.4650 201.5686 0005327 260.9207  99.1442 15.51345152595230
Horyu-4
1 41340U 16012D   26164.24367274  .00411178  59322-4  11265-2 0  9990
2 41340  30.9840 107.9281 0004244 244.6601 115.3620 15.92808659570185
Lapan A3
1 41603U 16040E   26164.86239266  .00003482  00000-0  11111-3 0  9991
2 41603  97.1482 161.1172 0011269  36.8796 323.3220 15.33085272554302
CAS-2T
1 41847U 16066G   26164.77755632  .00001655  00000-0  23896-3 0  9992
2 41847  98.3821 240.5528 0342693 139.7889 222.9205 14.44684063504309
TechnoSat
1 42829U 17042E   26164.65884588  .00004094  00000-0  29208-3 0  9991
2 42829  97.4269 322.4510 0018787 105.3407 254.9897 15.04937444486173
AO-91
1 43017U 17073E   26164.56984625  .00009212  00000-0  40226-3 0  9998
2 43017  97.4712  31.8592 0150140 341.8088  17.7804 15.12665401464842
S-Net D
1 43186U 18014G   26164.70123737  .00005261  00000-0  27216-3 0  9990
2 43186  97.5371  69.5139 0009271  40.9348 319.2579 15.16642878458232
S-Net B
1 43187U 18014H   26164.71262183  .00004993  00000-0  25867-3 0  9992
2 43187  97.5379  69.5119 0009796  36.2200 323.9694 15.16613690458236
S-Net A
1 43188U 18014J   26164.70013377  .00005299  00000-0  27401-3 0  9997
2 43188  97.5389  69.7072 0009660  37.1264 323.0635 15.16650574458236
S-Net C
1 43189U 18014K   26164.71648041  .00005003  00000-0  25919-3 0  9996
2 43189  97.5404  69.7978 0010844  29.1379 331.0457 15.16605716456781
Ten-Koh
1 43677U 18084G   26164.79481169  .00002282  00000-0  17470-3 0  9998
2 43677  98.0775 357.0156 0011242 124.1594 236.0697 15.02931702415652
PO-101
1 43678U 18084H   26164.83547012  .00002844  00000-0  23102-3 0  9997
2 43678  98.1178   0.8989 0012303 180.9539 179.1662 15.00438780415718
QO-100
1 43700U 18090A   26164.83824662  .00000154  00000-0  00000+0 0  9999
2 43700   0.0008 356.4962 0001507 125.4240 107.7957  1.00268894 27643
MinXSS-2
1 43758U 18099A   26164.72779083  .00033219  00000-0  66469-3 0  9998
2 43758  97.4548 240.9109 0006426 269.4600  90.5913 15.46683592413594
AO-95
1 43770U 18099N   26164.66941450  .00011615  00000-0  44518-3 0  9991
2 43770  97.4393 224.9284 0008355  10.7126 349.4289 15.26643407412685
SNUSat 2
1 43782U 18099AA  26164.65114042  .00008013  00000-0  35573-3 0  9991
2 43782  97.4064 218.0890 0008756 313.3812  46.6694 15.21789084412491
SnugLite
1 43784U 18099AC  26164.67091916  .00011415  00000-0  43186-3 0  9998
2 43784  97.3878 218.9854 0001309 321.4375  38.6770 15.27108120412785
ITASat 1
1 43786U 18099AE  26164.66214323  .00006799  00000-0  32727-3 0  9996
2 43786  97.4034 216.2439 0012487  12.7704 347.3845 15.19017046412372
EAGLET 1
1 43790U 18099AJ  26164.67973741  .00004582  00000-0  26345-3 0  9995
2 43790  97.4237 214.4411 0011016   6.6505 353.4871 15.12915954411802
ESEO
1 43792U 18099AL  26164.85430317  .00002196  00000-0  16198-3 0  9998
2 43792  97.3970 202.3849 0011681 351.0456   9.0560 15.04235786411301
JO-97
1 43803U 18099AX  26164.70285229  .00017139  00000-0  53016-3 0  9998
2 43803  97.4136 227.5247 0004189 279.4170  80.6599 15.33551647413095
Suomi 100
1 43804U 18099AY  26164.14705133  .00011498  00000-0  41885-3 0  9991
2 43804  97.4198 224.5551 0008362 296.4725  63.5657 15.28327206412800
ISAT
1 43879U 18111D   26164.77343803  .00092443  00000-0  94543-3 0  9997
2 43879  97.5886  99.7333 0000837  85.4426 274.6928 15.64723470410638
UWE-4
1 43880U 18111E   26164.78477082  .00034468  00000-0  70749-3 0  9992
2 43880  97.5857  93.0195 0006131 357.5273   2.5945 15.45933781410259
Sparrow
1 43881U 18111F   26164.82517073  .00145271  00000-0  10290-2 0  9992
2 43881  97.6124 105.3471 0004466 107.9115 252.2636 15.73520422410844
Prox-1
1 44339U 19036A   26164.24145975  .00013759  00000-0  13448-2 0  9995
2 44339  23.9923 140.6090 0005471 351.0248   9.0153 14.90523794372883
Taurus 1
1 44530U 19059C   26164.84420235  .00005606  00000-0  89982-3 0  9993
2 44530  98.6406 329.4652 0007598 328.4912  31.5837 14.72065782358151
TO-108
1 44881U 19093C   26164.81374269  .00000839  00000-0  10070-3 0  9997
2 44881  97.7534 237.1278 0015017  96.9993 263.2931 14.86513235350913
RS-44
1 44909U 19096E   26164.72157117  .00000028  00000-0  61609-4 0  9997
2 44909  82.5218 342.0083 0218031 152.2450 209.0490 12.79748789301907
SALSAT
1 46495U 20068K   26164.80958010  .00008083  00000-0  28306-3 0  9995
2 46495  97.8845 167.6684 0008290 322.4274  37.6385 15.29755280314848
CSS (TIANHE-1)
1 48274U 21035A   26164.84158950  .00024252  00000-0  28689-3 0  9996
2 48274  41.4695 342.3609 0007804  49.8258 310.3263 15.60672813292648
CUTE
1 49263U 21088D   26164.79483927  .00156144  11206-4  46949-3 0  9991
2 49263  97.4155 263.7637 0007626 235.0258 125.0300 15.92231673262018
TeikyoSat 4
1 49396U 21102B   26164.80621031  .00001693  00000-0  10933-3 0  9995
2 49396  97.3671 194.4211 0010684 310.0014  50.0277 15.09498408252217
Z-Sat
1 49399U 21102E   26164.83671568  .00004576  00000-0  22614-3 0  9993
2 49399  97.3328 200.2611 0014912 258.0807 101.8756 15.18241434252939
KOSEN 1
1 49402U 21102H   26164.86473610  .00008105  00000-0  30977-3 0  9992
2 49402  97.3189 207.0864 0012848 212.7186 147.3258 15.26793674253511
HO-113
1 50466U 21131B   26164.86132609  .00000407  00000-0  13926-3 0  9998
2 50466  98.4979 257.2689 0005323 103.8729 256.3053 14.41354217234635
